Wind_Speed
17 17 16 16 15 16 18 19 18 16 18 22 24 17 14 14 13 11 10 10 11 12 12 9 7 14 18 5 8 7 16 13 14 16 17 13 18 16 12 14 10 4 6 4 3 4 3
20 18 16 15 14 13 14 16 17 17 16 17 26 23 18 14 17 15 10 11 7 10 12 7 10 21 15 11 3 8 13 12 13 16 15 12 13 9 8 8 8 6 8 7 2 3 2
22 21 18 15 13 12 11 11 14 15 13 14 16 22 27 19 13 15 15 16 15 12 18 23 22 12 11 3 2 8 12 10 14 13 14 9 5 8 11 8 8 14 8 6 2 1 1
24 23 21 18 14 11 10 9 9 11 11 9 14 15 13 15 12 11 8 7 7 6 7 7 8 8 3 4 3 8 10 11 14 16 14 14 7 6 2 12 7 6 4 6 4 2 2
25 26 26 22 17 12 9 8 7 7 7 6 5 5 4 4 6 6 3 4 4 5 6 7 7 7 5 5 4 7 10 10 12 14 12 12 5 4 7 9 7 6 8 12 5 1 2
25 27 28 28 22 14 9 8 7 6 4 4 5 5 4 5 7 7 7 6 9 8 5 4 3 5 4 4 6 9 13 12 7 12 10 5 3 6 6 10 10 12 8 4 6 3 4
25 26 28 29 28 19 11 7 7 7 6 6 5 6 3 3 3 1 2 0 2 4 5 3 3 9 9 8 9 8 13 10 10 9 8 6 3 8 12 1 3 3 7 6 4 2 4
23 25 27 28 31 25 14 9 7 7 7 5 6 7 4 3 4 4 5 2 2 8 10 10 7 9 6 5 9 8 10 5 7 7 3 5 5 5 2 1 5 4 5 4 5 2 3
21 24 26 27 29 29 21 12 8 6 7 5 4 6 6 7 6 7 8 10 5 3 4 6 9 5 3 6 6 7 5 5 4 4 1 4 5 1 2 4 6 4 3 3 2 3 4
20 22 23 25 26 27 26 16 9 8 6 6 3 1 2 3 4 5 2 2 0 2 2 7 5 5 5 4 6 7 7 3 3 7 8 7 2 2 3 4 6 4 3 3 2 3 3
18 20 21 22 23 25 26 25 12 6 8 9 5 3 2 3 2 4 4 3 2 2 3 6 4 3 6 4 8 7 7 6 6 6 2 2 3 3 3 4 6 5 1 3 2 2 4
16 17 19 21 22 23 26 26 24 7 4 10 9 4 1 4 4 4 3 2 1 2 4 2 3 4 3 8 4 3 2 8 6 7 13 5 3 4 3 5 5 7 2 1 1 1 3
16 17 18 20 22 23 23 25 24 16 6 6 10 10 6 1 3 3 2 1 1 3 2 3 4 4 5 5 4 2 2 5 1 4 1 4 3 3 1 2 2 2 0 0 1 2 2
17 20 20 21 22 24 23 24 24 20 7 2 3 15 9 2 1 1 0 2 4 1 2 2 2 3 4 3 3 2 4 4 3 1 3 5 2 2 2 2 2 2 2 2 4 2 2
17 19 21 22 22 24 24 24 25 24 10 4 3 5 23 5 1 3 1 4 3 4 3 2 3 1 3 2 1 2 2 2 3 4 2 4 3 3 3 1 3 4 4 2 2 1 3
14 17 20 20 21 23 25 25 25 24 12 8 4 2 20 6 4 8 3 4 2 3 4 3 3 3 2 3 2 3 4 2 2 3 4 1 3 0 2 2 2 3 1 1 1 3 4
15 13 15 19 20 21 24 25 25 24 15 8 5 1 19 7 7 3 4 4 4 2 2 4 4 2 3 2 2 2 3 3 2 2 2 2 2 3 1 5 0 3 2 2 3 3 3
12 16 15 17 21 23 22 24 25 23 18 6 6 3 19 6 2 4 4 3 1 2 2 2 2 4 4 3 2 2 1 4 3 3 2 3 3 2 2 2 2 3 3 6 3 4 1
11 14 17 15 16 20 23 22 23 24 21 6 3 4 16 6 4 5 3 4 5 4 5 4 2 4 1 2 0 1 2 2 2 2 2 1 2 2 3 3 3 5 9 7 2 1 7
12 12 13 18 19 18 19 22 21 21 20 10 4 2 7 11 7 7 4 3 3 3 3 3 2 1 0 1 3 1 1 1 3 2 2 2 3 7 4 3 3 4 9 11 10 4 7
10 13 14 14 16 17 18 17 19 20 17 7 7 5 4 3 7 5 2 1 2 1 1 1 2 3 2 0 1 1 1 2 1 1 1 3 4 2 9 8 6 9 10 14 16 18 9
12 13 13 14 14 16 18 18 19 18 15 15 4 1 3 4 5 2 2 1 1 3 2 2 2 1 0 1 2 1 2 4 1 4 3 2 2 2 5 2 7 12 15 16 19 20 18
13 14 15 16 16 14 15 16 16 15 14 8 6 4 1 2 1 4 4 2 1 2 1 1 1 1 1 3 3 4 5 4 3 2 6 3 2 1 4 2 7 12 12 18 12 11 10
12 12 13 14 14 14 13 13 13 12 12 8 6 3 4 1 1 3 4 1 1 3 4 0 1 3 2 3 6 5 7 7 7 8 4 3 4 2 5 6 5 3 2 5 9 4 5
12 12 13 13 14 13 13 11 11 10 9 9 7 3 1 3 2 3 6 4 5 5 3 1 0 2 4 4 4 4 4 4 5 4 8 8 6 4 4 6 13 12 3 1 4 6 3
14 13 13 13 13 13 13 12 10 8 6 4 5 5 2 3 2 2 3 3 4 3 5 4 3 3 1 2 3 3 3 2 3 3 1 7 7 6 3 5 5 5 5 1 1 6 7
12 11 11 12 11 12 12 12 8 8 5 2 1 3 2 5 1 2 3 2 0 2 3 1 2 2 3 3 4 4 5 1 3 4 5 4 5 12 11 7 8 5 5 1 4 2 5
11 9 9 8 8 8 10 11 9 6 6 4 4 2 0 3 6 4 4 3 3 5 4 3 3 2 2 3 2 3 3 2 3 1 3 6 5 5 6 5 9 2 4 5 4 6 2
10 9 7 5 7 7 8 9 8 6 7 7 8 5 3 4 6 11 16 11 10 6 2 2 4 2 2 3 2 2 4 3 4 5 4 5 9 5 6 2 6 7 10 7 4 1 6
Wind_Direction
12 8 9 8 17 22 22 29 34 34 37 39 26 45 53 100 110 116 118 136 170 183 137 117 22 184 153 222 250 225 187 192 184 179 181 178 178 191 202 185 176 201 136 107 92 82 74
24 13 9 7 7 16 22 25 33 41 45 59 45 50 53 86 109 103 113 110 107 120 111 23 142 135 168 242 232 185 184 179 176 175 178 178 183 203 177 164 209 125 133 124 86 68 47
32 23 11 7 2 5 14 25 31 43 47 62 56 58 67 94 87 87 95 97 97 89 60 103 107 170 239 273 157 154 166 167 171 177 177 189 205 200 158 141 129 134 123 135 115 2 257
32 29 23 12 2 360 6 14 31 38 54 68 80 72 83 86 76 87 95 89 89 100 143 207 196 204 273 122 130 119 144 159 168 174 174 184 157 151 155 124 122 162 173 191 124 272 199
30 27 25 22 14 357 1 11 10 29 40 53 58 68 72 55 2 359 84 112 106 113 144 160 188 221 87 104 111 130 150 146 156 162 171 166 133 146 144 174 151 188 203 217 153 110 283
27 26 25 22 18 10 3 7 11 11 8 21 22 23 23 54 94 97 92 108 95 93 108 134 178 190 127 135 134 124 134 133 136 136 129 145 198 178 195 190 187 187 207 213 222 108 240
27 27 24 23 23 16 11 11 13 20 17 7 342 314 321 103 153 116 14 332 195 132 57 51 75 94 105 117 105 123 123 113 126 158 163 169 192 187 187 27 32 123 206 211 114 105 289
31 27 25 24 24 24 22 26 16 13 18 16 25 26 6 270 260 276 331 328 86 131 78 58 60 91 110 127 118 85 104 154 169 145 140 172 157 57 80 158 116 135 178 160 121 131 287
32 29 24 22 24 25 26 31 24 22 17 18 27 47 50 48 72 89 116 121 96 69 112 52 49 39 58 65 57 24 56 103 102 106 139 166 91 125 208 137 140 66 298 96 6 302 238
26 30 27 22 21 24 23 22 25 9 6 355 351 287 8 52 77 117 141 160 9 328 111 27 6 18 1 122 61 48 81 92 61 97 78 74 78 118 129 93 331 174 43 68 8 328 298
25 24 25 25 21 18 21 19 11 22 32 21 346 265 241 215 231 226 244 259 258 149 94 356 5 13 36 78 134 33 59 54 79 85 223 75 99 81 96 17 330 72 64 52 19 324 322
22 27 22 21 22 22 16 17 17 3 1 32 33 8 246 258 256 266 274 43 171 260 64 49 339 347 137 54 62 94 81 79 110 72 67 89 80 28 62 60 50 130 166 105 127 286 237
14 21 26 19 19 20 20 15 17 17 7 31 59 42 28 341 272 284 282 93 14 47 264 30 18 8 82 41 71 38 88 85 75 93 45 127 53 89 22 144 148 237 212 157 273 199 284
5 9 14 18 16 16 17 16 13 11 13 161 82 42 25 12 350 317 145 201 59 312 39 117 300 79 70 356 64 78 113 117 71 291 151 160 205 176 30 336 332 171 271 273 260 253 23
3 2 5 10 13 12 11 15 13 8 24 5 275 313 14 20 49 132 231 49 39 15 355 336 188 114 103 94 24 134 71 92 49 5 283 161 131 131 50 326 310 139 216 24 298 191 260
2 6 360 3 7 8 6 9 13 13 18 30 43 346 2 10 82 121 83 84 67 16 334 286 358 330 144 100 189 205 176 50 77 15 336 79 117 42 94 297 77 312 35 191 197 263 253
343 4 2 358 2 8 6 5 8 13 9 31 58 157 358 21 78 51 83 91 104 55 17 2 33 49 49 81 4 95 76 100 39 37 348 331 279 108 213 199 242 151 214 238 301 278 287
339 340 359 1 357 359 7 6 3 8 18 27 38 46 353 62 46 61 62 51 48 66 66 94 47 45 43 46 79 86 81 40 20 351 3 31 327 161 57 87 333 300 278 245 249 168 272
333 335 338 349 1 356 356 7 7 5 8 25 53 24 21 78 61 65 81 79 52 23 23 8 54 13 11 103 157 91 110 65 16 342 350 63 207 207 184 179 197 232 204 228 201 312 238
319 331 335 339 345 354 1 360 9 11 7 19 351 19 13 48 69 102 108 62 95 59 68 27 44 334 336 72 25 117 125 84 7 356 356 322 273 260 278 36 112 196 206 211 205 201 238
315 322 331 342 345 352 357 8 8 12 16 29 40 39 13 20 46 66 104 88 106 95 81 44 109 58 19 322 132 154 84 160 169 159 318 301 282 308 296 284 252 264 237 213 214 225 241
304 316 325 332 342 348 354 2 11 13 20 41 51 59 49 48 349 337 344 52 127 131 327 56 354 73 280 292 346 44 194 215 257 181 218 181 261 331 278 275 259 257 254 250 242 247 258
319 314 319 327 329 335 344 350 5 15 19 53 46 56 144 138 67 308 28 56 1 310 37 61 71 255 280 40 359 324 294 290 316 280 210 230 253 276 263 334 306 270 252 237 231 242 255
318 318 320 326 332 335 337 343 353 8 27 44 49 38 305 118 224 123 150 77 352 345 338 49 285 284 39 311 287 254 235 233 235 225 252 225 232 282 289 299 249 74 1 310 220 238 276
302 311 317 322 327 331 334 335 340 347 2 12 17 60 15 302 307 192 184 173 185 186 200 228 301 323 317 300 275 264 194 213 211 220 218 222 225 252 254 249 296 275 155 135 207 207 230
292 297 301 304 310 314 317 318 318 322 323 338 349 359 347 301 133 104 214 229 263 220 175 184 207 210 160 260 260 266 256 3 190 175 243 215 247 244 174 260 265 96 133 81 198 256 138
290 297 301 304 305 308 309 303 297 312 334 323 285 313 336 289 239 179 238 281 49 303 289 182 184 180 181 214 231 231 248 47 254 227 171 175 210 223 235 254 273 102 134 88 233 58 135
292 297 303 314 319 325 327 329 317 266 286 318 307 359 184 284 298 269 245 230 269 240 256 96 248 186 203 228 259 240 258 160 276 120 202 204 208 205 222 245 262 93 139 227 85 91 57
281 280 283 294 308 314 316 317 318 275 247 260 274 268 265 262 249 289 283 278 233 192 337 247 319 337 298 259 237 311 250 225 273 272 186 244 226 300 221 255 98 63 100 103 99 356 296
Height
1520 1516 1513 1509 1506 1502 1499 1496 1493 1491 1488 1485 1478 1473 1470 1468 1469 1471 1473 1474 1475 1476 1478 1479 1483 1484 1489 1493 1491 1487 1489 1491 1493 1497 1501 1505 1506 1507 1505 1505 1509 1507 1515 1519 1521 1519 1519
1522 1517 1513 1510 1507 1504 1500 1497 1495 1493 1491 1488 1483 1478 1475 1473 1474 1475 1476 1477 1476 1477 1480 1480 1481 1487 1492 1493 1488 1487 1489 1491 1493 1497 1501 1504 1506 1506 1505 1507 1506 1510 1515 1520 1521 1521 1521
1523 1519 1514 1510 1507 1504 1502 1499 1497 1495 1493 1491 1488 1486 1481 1480 1480 1479 1480 1481 1482 1482 1481 1483 1484 1490 1493 1490 1488 1488 1489 1492 1494 1498 1502 1504 1504 1508 1507 1510 1511 1512 1516 1519 1522 1522 1522
1525 1521 1516 1511 1507 1504 1503 1501 1498 1496 1495 1493 1492 1490 1489 1487 1486 1485 1484 1485 1485 1485 1485 1486 1490 1492 1490 1487 1488 1489 1491 1493 1495 1498 1500 1502 1504 1507 1506 1509 1511 1509 1512 1515 1520 1522 1523
1528 1523 1518 1513 1508 1504 1502 1501 1499 1497 1496 1494 1494 1493 1492 1491 1489 1488 1487 1486 1487 1488 1490 1489 1490 1490 1488 1489 1491 1491 1493 1494 1496 1498 1501 1503 1505 1507 1509 1504 1506 1509 1504 1507 1519 1523 1522
1530 1526 1521 1516 1510 1505 1503 1501 1499 1497 1496 1495 1494 1494 1493 1492 1492 1491 1489 1488 1488 1489 1491 1491 1491 1493 1491 1493 1491 1492 1492 1495 1497 1499 1503 1504 1506 1503 1503 1499 1507 1503 1503 1506 1506 1522 1520
1532 1528 1523 1518 1513 1507 1504 1502 1500 1499 1496 1495 1494 1493 1493 1492 1492 1492 1491 1491 1493 1493 1490 1490 1490 1489 1491 1493 1492 1494 1494 1497 1499 1500 1499 1503 1505 1504 1500 1500 1497 1493 1496 1501 1513 1521 1521
1534 1529 1525 1520 1515 1509 1505 1504 1502 1500 1497 1495 1494 1493 1493 1492 1491 1491 1490 1490 1490 1492 1492 1491 1492 1492 1494 1494 1495 1495 1495 1499 1499 1499 1501 1502 1505 1510 1511 1507 1502 1502 1502 1505 1515 1519 1520
1536 1532 1527 1522 1517 1512 1507 1505 1504 1502 1499 1496 1495 1492 1493 1493 1492 1491 1492 1492 1492 1492 1490 1494 1494 1494 1494 1495 1496 1496 1497 1499 1499 1501 1500 1499 1513 1516 1511 1508 1505 1509 1505 1510 1516 1516 1516
1538 1534 1529 1524 1520 1515 1511 1506 1504 1502 1501 1498 1496 1494 1494 1494 1496 1494 1493 1492 1492 1491 1490 1498 1496 1497 1496 1495 1499 1498 1499 1502 1504 1504 1506 1512 1518 1515 1511 1514 1515 1510 1521 1520 1519 1516 1510
1539 1536 1531 1527 1522 1517 1513 1509 1505 1502 1500 1499 1496 1494 1494 1494 1494 1494 1495 1492 1492 1493 1501 1502 1500 1498 1497 1497 1500 1502 1501 1503 1504 1510 1512 1522 1518 1517 1514 1524 1522 1521 1525 1523 1523 1520 1524
1541 1537 1533 1529 1525 1520 1515 1510 1506 1503 1501 1499 1497 1494 1495 1494 1494 1494 1493 1493 1494 1497 1509 1505 1501 1499 1497 1498 1501 1503 1504 1503 1509 1510 1515 1522 1524 1524 1525 1527 1524 1526 1524 1524 1524 1524 1530
1542 1539 1535 1531 1526 1522 1518 1512 1507 1504 1502 1501 1499 1497 1494 1494 1494 1493 1493 1494 1497 1499 1507 1505 1503 1501 1499 1502 1503 1504 1504 1505 1506 1522 1527 1519 1525 1528 1528 1524 1527 1526 1525 1522 1527 1528 1514
1542 1540 1536 1531 1527 1524 1519 1514 1508 1503 1501 1501 1500 1497 1495 1494 1493 1493 1493 1495 1501 1507 1505 1507 1504 1501 1503 1505 1507 1505 1504 1506 1513 1509 1510 1517 1530 1527 1530 1528 1524 1525 1524 1518 1523 1511 1504
1543 1540 1537 1533 1528 1524 1520 1515 1510 1503 1499 1499 1499 1499 1497 1495 1493 1493 1496 1502 1509 1505 1508 1503 1503 1498 1504 1504 1504 1503 1506 1507 1514 1515 1509 1512 1523 1531 1531 1530 1530 1525 1526 1527 1523 1523 1520
1544 1541 1538 1534 1530 1526 1521 1516 1510 1505 1500 1498 1498 1499 1499 1496 1494 1495 1497 1509 1511 1515 1513 1509 1500 1502 1498 1503 1504 1503 1507 1516 1516 1519 1518 1510 1521 1530 1532 1532 1532 1529 1530 1525 1525 1524 1513
1546 1540 1537 1535 1532 1527 1522 1518 1512 1507 1502 1499 1498 1499 1499 1496 1496 1497 1502 1511 1514 1515 1514 1511 1507 1505 1504 1504 1505 1506 1510 1519 1519 1518 1517 1516 1512 1531 1531 1529 1520 1530 1526 1527 1526 1519 1510
1545 1544 1538 1534 1533 1529 1523 1519 1514 1509 1503 1502 1500 1501 1500 1496 1499 1499 1505 1510 1514 1515 1514 1513 1512 1511 1509 1511 1509 1510 1511 1516 1521 1520 1516 1519 1513 1519 1519 1529 1530 1527 1520 1517 1520 1514 1518
1544 1542 1540 1534 1529 1528 1526 1519 1515 1511 1507 1503 1503 1503 1501 1496 1499 1505 1514 1515 1516 1515 1516 1514 1513 1514 1513 1511 1512 1513 1516 1523 1523 1522 1519 1519 1515 1516 1521 1529 1530 1526 1520 1519 1522 1525 1517
1543 1541 1539 1537 1533 1528 1525 1523 1517 1513 1509 1507 1508 1505 1506 1504 1508 1508 1510 1515 1516 1519 1518 1518 1517 1517 1515 1514 1516 1516 1519 1524 1525 1525 1525 1524 1516 1510 1504 1508 1509 1518 1518 1519 1518 1521 1506
1542 1540 1538 1536 1534 1530 1526 1521 1520 1516 1512 1509 1510 1517 1516 1510 1512 1513 1513 1515 1516 1517 1519 1519 1518 1518 1518 1516 1517 1518 1521 1524 1525 1526 1526 1525 1519 1519 1519 1514 1516 1514 1511 1514 1517 1506 1503
1540 1539 1537 1535 1533 1530 1527 1524 1520 1518 1515 1514 1515 1516 1518 1519 1519 1515 1516 1516 1515 1518 1519 1519 1519 1520 1519 1517 1518 1517 1519 1521 1519 1527 1525 1526 1520 1522 1516 1509 1513 1514 1508 1506 1503 1504 1503
1538 1537 1535 1533 1531 1529 1527 1525 1521 1519 1517 1516 1518 1517 1516 1518 1517 1516 1519 1520 1520 1521 1521 1520 1519 1518 1518 1521 1522 1522 1522 1522 1522 1521 1522 1523 1520 1520 1510 1512 1509 1501 1492 1493 1496 1497 1498
1536 1534 1532 1531 1529 1528 1526 1524 1523 1520 1519 1518 1517 1518 1520 1515 1515 1514 1517 1521 1522 1523 1521 1522 1521 1520 1523 1521 1519 1517 1517 1518 1519 1520 1522 1520 1521 1520 1514 1511 1508 1492 1494 1493 1489 1496 1498
1533 1532 1531 1529 1528 1527 1526 1524 1523 1522 1521 1522 1520 1518 1519 1516 1519 1519 1519 1517 1518 1519 1520 1521 1523 1523 1523 1522 1517 1511 1512 1515 1514 1516 1518 1519 1515 1516 1514 1502 1488 1482 1494 1494 1495 1493 1501
1530 1528 1527 1526 1525 1525 1524 1523 1522 1521 1521 1520 1520 1521 1520 1517 1515 1519 1520 1520 1516 1515 1518 1518 1518 1518 1520 1519 1517 1511 1502 1498 1506 1519 1522 1520 1520 1515 1510 1511 1496 1487 1495 1497 1497 1489 1501
1527 1525 1523 1524 1521 1521 1521 1521 1519 1520 1519 1519 1517 1519 1520 1520 1518 1517 1517 1518 1520 1519 1517 1519 1519 1519 1519 1514 1512 1508 1502 1504 1501 1501 1515 1519 1519 1515 1511 1506 1491 1489 1494 1496 1496 1497 1503
1523 1522 1521 1521 1520 1518 1518 1519 1517 1517 1520 1519 1519 1516 1519 1520 1519 1518 1517 1517 1518 1519 1516 1520 1519 1518 1519 1516 1512 1505 1505 1501 1505 1500 1503 1503 1506 1508 1503 1503 1498 1493 1495 1495 1499 1503 1505
1520 1519 1519 1519 1519 1517 1515 1516 1515 1515 1516 1518 1519 1519 1517 1517 1516 1515 1515 1516 1517 1517 1518 1519 1518 1518 1515 1514 1513 1512 1511 1508 1502 1500 1502 1503 1494 1493 1493 1487 1495 1496 1496 1500 1501 1503 1503